Location: Blandford
(50.8667°N, 2.1667°W)
Time: 06:07:39
(UTC+00:00)

CZ-4 R/B - Pass Details

Date: 09 April 2020
Orbit: 532 x 598 km, 97.8° (Epoch: 29 May)

Event Time Altitude Azimuth Distance (km) Brightness Sun altitude
Rises 19:34:49 0° 207° (SSW) 2,667 4.9 -6.8°
Reaches altitude 10° 19:37:33 10° 229° (SW) 1,783 4.3 -7.2°
Maximum altitude 19:40:03 17° 270° (W) 1,424 4.6 -7.6°
Drops below altitude 10° 19:42:35 10° 310° (NW) 1,801 5.4 -7.9°
Sets 19:45:22 0° 332° (NNW) 2,707 5.8 -8.3°
